Showing default

BRO-12, 59108

Orbit data source: Space-Track

BRO-12, 59108 is a payload satellite owned by Unseen Labs (FR) in SSO that was launched on Mon, 04 Mar 2024 UTC via an FALCON 9 launch vehicle from the Air Force Western Test Range (AFWTR). Payload-class satellites include a variety of spacecraft equipped with specific instruments for various scientific and technological missions. These include communications satellites like Starlink; space stations such as the ISS; scientific satellites like the Hubble; Earth observation satellites from companies like Planet Labs, Umbra, and HawkEye 360; GPS; miniature CubeSats for education and research; and military/defense satellites.

Loading next visibility...
Identifier
59108, 2024-043L
Orbit
SSO
Country
Flag of FRFR
Related business
Manufacturer
GOMSpace
Mission
Operational Commercial Sigint
Bus & Motor
CUBESAT 8U, Unknown motor
Mass
15 kg wet, ~15 kg dry
Launch date (UTC)
2024-03-04 (2 years ago)
Launch vehicle
FALCON 9
Launch site
Air Force Western Test Range (AFWTR)
Object type
Payload
Rocket body
Debris
Shape & HBR
Box, 0.2 m
Radar Cross Section
0.100 m², Medium (>0.1 m² and < 1m²)

Expand to show TLE details & history
Last TLE update: 8 hours ago

TLE from 8 hours ago
0 BRO-12
1 59108U 24043L   26125.30380292  .00002178  00000-0  19565-3 0  9996
2 59108  97.8418 256.3588 0009602 131.1463 229.0589 14.96736331118227
Epoch: 2026-05-05T07:17Z
TLE epoch observation values (Epoch: 2026-05-05T07:17:28.572Z)
Latitude
0.00006°
Longitude
-76.19083°
Altitude
584.415 km
Speed
7.566 km/s
True Right ascension
17h 05m 26s
True Declination
0° 00' 00"
Sunlit
Object was in full shadow at epoch
Visualization orbit readout
Latitude
Unknown
Longitude
Unknown
Altitude
Unknown
Speed
Unknown
Apparent Right ascension
Unknown
Apparent Declination
Unknown
Sunlit
N/A
Visualization observer readout
Local Sidereal Time
23:27:36
Azimuth
Unknown
Elevation
Unknown
Doppler factor
Unknown
Orbital elements
Apogee altitude
580.68 km
Perigee altitude
567.329 km
Semi-major axis
6,952.141 km
Eccentricity
0.00096
Inclination
97.8418°
RAAN
256.3588°
Arg. of periapsis
131.1463°
True anomaly
228.97585°
Mean anomaly
229.0589°
Eccentric anomaly
229.01737°
Mean motion
3.74425 °/min
Orbital period
96.15 mins
BSTAR
0.00019565
Loading maneuver chart data...
Computing Atmospheric mass density...
Loading historical data...
Loading historical data...
Loading historical data...
Loading historical data...
Loading historical data...
Loading historical data...
Loading historical data...

Documentation

Showing up to 5 results
|